Flag for Canada Weather past 2 weeks in Rouyn-Noranda, Quebec, Canada

Now
63 °F

Passing clouds.


Feels Like: 63 °F
Forecast: 58 / 76 °F
Wind: 7 mph from Southwest

Location: Rouyn Airport

Current Time: Aug 29, 2015 at 10:24:18 PM

Latest Report: Aug 29, 2015 at 10:00 PM


Visibility: 15 mi

Pressure: 30.01 "Hg

Humidity: 94%

Dew point: 61 °F

Location of Rouyn-NorandaLocation

Historic Weather in Rouyn-Noranda — Graph

°F

Rouyn-Noranda temperature yesterday

Maximum temperature yesterday: 70 °F (at 5:00 PM)
Minimum temperature yesterday: 52 °F (at 1:00 AM)
Average temperature yesterday: 59 °F

Past Weeks' High & Low Weather Summary

 TemperatureHumidityPressure
High84 °F (Aug 16, 5:00 PM)100% (Aug 15, 7:00 AM)30.17 "Hg (Aug 15, 7:00 AM)
Low46 °F (Aug 22, 5:00 AM)42% (Aug 15, 4:00 PM)29.51 "Hg (Aug 20, 12:03 PM)
Average64 °F83%29.93 "Hg
* Reported Aug 14 9:00 PM — Aug 29 9:00 PM, Rouyn-Noranda, Weather by CustomWeather, © 2015

Note: Actual official high and low records may vary slightly from our data, if they occured in-between our weather recording intervals... More about our weather records

Advertising

Rouyn-Noranda weather history for previous 24 hours

 ConditionsComfort  
Time TempWeatherWind HumidityBarometerVisibility
9:00 PM
Sat, Aug 29
63 °FPartly sunny.6 mph94%30.00 "Hg15 mi
8:00 PM64 °FScattered clouds.6 mph88%29.98 "Hg15 mi
7:00 PM68 °FScattered clouds.6 mph78%29.98 "Hg15 mi
6:00 PM68 °FBroken clouds.8 mph78%29.98 "Hg15 mi
5:00 PM66 °FBroken clouds.8 mph88%29.98 "Hg15 mi
4:00 PM64 °FLight rain. Mostly cloudy.6 mph94%29.99 "Hg10 mi
3:00 PM64 °FLight rain. Fog.6 mph94%29.99 "Hg15 mi
2:00 PM64 °FLight rain. Mostly cloudy.7 mph88%30.01 "Hg15 mi
1:00 PM64 °FMostly cloudy.8 mph88%30.01 "Hg15 mi
12:00 PM64 °FMostly cloudy.7 mph88%30.01 "Hg15 mi
11:00 AM64 °FCloudy.12 mph83%30.02 "Hg15 mi
10:00 AM63 °FMore clouds than sun.10 mph88%30.01 "Hg15 mi
9:00 AM61 °FMore clouds than sun.8 mph94%30.02 "Hg15 mi
8:00 AM61 °FMostly cloudy.7 mph88%30.02 "Hg15 mi
7:47 AM59 °FMostly cloudy.8 mph94%30.02 "Hg15 mi
7:00 AM59 °FLight rain. Mostly cloudy.8 mph94%30.02 "Hg15 mi
6:00 AM59 °FPassing clouds.8 mph94%30.01 "Hg15 mi
5:00 AM61 °FOvercast.9 mph88%30.00 "Hg15 mi
4:00 AM61 °FOvercast.8 mph88%30.02 "Hg15 mi
3:00 AM61 °FPassing clouds.7 mph88%30.01 "Hg15 mi
2:00 AM61 °FOvercast.8 mph88%30.02 "Hg15 mi
1:00 AM63 °FPassing clouds.8 mph83%30.02 "Hg15 mi
12:00 AM63 °FOvercast.13 mph83%30.02 "Hg15 mi
11:00 PM
Fri, Aug 28
63 °FPassing clouds.9 mph83%30.03 "Hg15 mi
10:00 PM63 °FMild.7 mph83%30.04 "Hg15 mi
Weather by CustomWeather, © 2015

See weather overviewHow to use our weather pages